Time,TemperatureF,DewpointF,PressureIn,WindDirection,WindDirectionDegrees,WindSpeedMPH,WindSpeedGustMPH,Humidity,HourlyPrecipIn,Conditions,Clouds,dailyrainin,SoftwareType,DateUTC
2013-03-17 00:02:00,64.0,58.8,30.02,NE,45,10.0,17.0,83,0.00,,,0.00,meteohub,2013-03-17 06:02:00,
2013-03-17 00:07:00,63.9,58.6,30.01,ENE,68,8.0,17.0,83,0.00,,,0.00,meteohub,2013-03-17 06:07:00,
2013-03-17 00:12:00,63.9,58.6,30.00,NE,45,11.0,17.0,83,0.00,,,0.00,meteohub,2013-03-17 06:12:00,
2013-03-17 00:17:00,63.7,58.5,30.00,East,90,9.0,13.0,83,0.00,,,0.00,meteohub,2013-03-17 06:17:00,
2013-03-17 00:22:00,63.7,58.5,30.01,East,90,12.0,13.0,83,0.00,,,0.00,meteohub,2013-03-17 06:22:00,
2013-03-17 00:27:00,63.7,58.5,30.01,East,90,6.0,13.0,83,0.00,,,0.00,meteohub,2013-03-17 06:27:00,
2013-03-17 00:33:00,63.5,58.3,30.01,ENE,68,14.0,14.0,83,0.00,,,0.00,meteohub,2013-03-17 06:33:00,
2013-03-17 00:38:00,63.7,58.1,30.00,East,90,11.0,14.0,82,0.00,,,0.00,meteohub,2013-03-17 06:38:00,
2013-03-17 00:46:00,63.5,57.9,30.00,East,90,9.0,14.0,82,0.00,,,0.00,meteohub,2013-03-17 06:46:00,
2013-03-17 00:51:00,63.3,58.1,30.00,NE,45,13.0,13.0,83,0.00,,,0.00,meteohub,2013-03-17 06:51:00,
2013-03-17 00:57:00,63.3,58.1,30.00,NE,45,13.0,15.0,83,0.00,,,0.00,meteohub,2013-03-17 06:57:00,
2013-03-17 01:02:00,63.5,57.9,30.01,NE,45,9.0,15.0,82,0.00,,,0.00,meteohub,2013-03-17 07:02:00,
2013-03-17 01:07:00,63.7,57.7,30.01,East,90,10.0,15.0,81,0.00,,,0.00,meteohub,2013-03-17 07:07:00,
2013-03-17 01:13:00,63.9,57.6,30.00,East,90,13.0,14.0,80,0.00,,,0.00,meteohub,2013-03-17 07:13:00,
2013-03-17 01:18:00,64.0,57.0,29.99,NE,45,11.0,15.0,78,0.00,,,0.00,meteohub,2013-03-17 07:18:00,
2013-03-17 01:23:00,63.9,56.8,30.00,NE,45,8.0,15.0,78,0.00,,,0.00,meteohub,2013-03-17 07:23:00,
2013-03-17 01:29:00,63.5,56.8,30.01,NE,45,8.0,15.0,79,0.00,,,0.00,meteohub,2013-03-17 07:29:00,
2013-03-17 01:34:00,63.3,56.7,30.00,East,90,13.0,13.0,79,0.00,,,0.00,meteohub,2013-03-17 07:34:00,
2013-03-17 01:39:00,63.7,56.7,30.00,East,90,10.0,13.0,78,0.00,,,0.00,meteohub,2013-03-17 07:39:00,
2013-03-17 01:45:00,63.7,56.7,30.00,NE,45,11.0,13.0,78,0.00,,,0.00,meteohub,2013-03-17 07:45:00,
2013-03-17 01:50:00,63.9,56.5,30.00,NE,45,12.0,15.0,77,0.00,,,0.00,meteohub,2013-03-17 07:50:00,
2013-03-17 01:57:00,63.9,56.5,30.00,ESE,113,11.0,15.0,77,0.00,,,0.00,meteohub,2013-03-17 07:57:00,
2013-03-17 02:02:00,63.9,56.5,30.00,East,90,10.0,14.0,77,0.00,,,0.00,meteohub,2013-03-17 08:02:00,
2013-03-17 02:08:00,63.9,56.8,30.01,North,0,13.0,13.0,78,0.00,,,0.00,meteohub,2013-03-17 08:08:00,
2013-03-17 02:13:00,63.9,57.2,30.01,East,90,10.0,15.0,79,0.00,,,0.00,meteohub,2013-03-17 08:13:00,
2013-03-17 02:18:00,63.7,57.0,30.01,East,90,11.0,15.0,79,0.00,,,0.00,meteohub,2013-03-17 08:18:00,
2013-03-17 02:23:00,63.3,56.7,30.00,NE,45,11.0,15.0,79,0.00,,,0.00,meteohub,2013-03-17 08:23:00,
2013-03-17 02:28:00,63.3,57.4,30.02,East,90,16.0,16.0,81,0.00,,,0.00,meteohub,2013-03-17 08:28:00,
2013-03-17 02:33:00,63.3,57.4,30.01,East,90,8.0,13.0,81,0.00,,,0.00,meteohub,2013-03-17 08:33:00,
2013-03-17 02:39:00,63.3,57.0,30.00,East,90,11.0,18.0,80,0.00,,,0.00,meteohub,2013-03-17 08:39:00,
2013-03-17 02:44:00,63.3,57.0,30.01,East,90,10.0,18.0,80,0.00,,,0.00,meteohub,2013-03-17 08:44:00,
2013-03-17 02:49:00,63.5,56.8,30.01,SE,135,11.0,13.0,79,0.00,,,0.00,meteohub,2013-03-17 08:49:00,
2013-03-17 02:54:00,63.5,56.8,30.01,East,90,11.0,13.0,79,0.00,,,0.00,meteohub,2013-03-17 08:54:00,
2013-03-17 02:59:00,63.5,57.6,30.01,East,90,11.0,13.0,81,0.00,,,0.00,meteohub,2013-03-17 08:59:00,
2013-03-17 03:04:00,63.7,57.7,30.01,NE,45,12.0,16.0,81,0.00,,,0.00,meteohub,2013-03-17 09:04:00,
2013-03-17 03:09:00,64.0,57.4,30.02,East,90,14.0,17.0,79,0.00,,,0.00,meteohub,2013-03-17 09:09:00,
2013-03-17 03:14:00,64.2,57.6,30.01,East,90,11.0,17.0,79,0.00,,,0.00,meteohub,2013-03-17 09:14:00,
2013-03-17 03:19:00,64.4,57.4,30.02,NE,45,13.0,17.0,78,0.00,,,0.00,meteohub,2013-03-17 09:19:00,
2013-03-17 03:29:00,64.2,57.6,30.02,NE,45,10.0,17.0,79,0.00,,,0.00,meteohub,2013-03-17 09:29:00,
2013-03-17 03:34:00,64.0,57.0,30.02,East,90,8.0,17.0,78,0.00,,,0.00,meteohub,2013-03-17 09:34:00,
2013-03-17 03:39:00,63.9,56.8,30.02,East,90,11.0,17.0,78,0.00,,,0.00,meteohub,2013-03-17 09:39:00,
2013-03-17 03:46:00,63.7,56.7,30.03,NE,45,13.0,15.0,78,0.00,,,0.00,meteohub,2013-03-17 09:46:00,
2013-03-17 03:53:00,63.7,56.7,30.02,NE,45,10.0,15.0,78,0.00,,,0.00,meteohub,2013-03-17 09:53:00,
2013-03-17 03:58:00,63.9,57.2,30.02,NE,45,8.0,15.0,79,0.00,,,0.00,meteohub,2013-03-17 09:58:00,
2013-03-17 04:03:00,64.0,57.7,30.03,SE,135,8.0,15.0,80,0.00,,,0.00,meteohub,2013-03-17 10:03:00,
2013-03-17 04:08:00,63.9,58.3,30.04,NE,45,13.0,15.0,82,0.00,,,0.00,meteohub,2013-03-17 10:08:00,
2013-03-17 04:13:00,63.9,58.3,30.03,East,90,11.0,15.0,82,0.00,,,0.00,meteohub,2013-03-17 10:13:00,
2013-03-17 04:18:00,63.7,58.1,30.03,SE,135,8.0,13.0,82,0.00,,,0.00,meteohub,2013-03-17 10:18:00,
2013-03-17 04:23:00,63.7,58.1,30.03,East,90,8.0,13.0,82,0.00,,,0.00,meteohub,2013-03-17 10:23:00,
2013-03-17 04:28:00,63.5,57.6,30.04,ESE,113,8.0,13.0,81,0.00,,,0.00,meteohub,2013-03-17 10:28:00,
2013-03-17 04:33:00,63.3,57.4,30.03,SE,135,7.0,11.0,81,0.00,,,0.00,meteohub,2013-03-17 10:33:00,
2013-03-17 04:38:00,63.3,57.0,30.04,East,90,6.0,11.0,80,0.00,,,0.00,meteohub,2013-03-17 10:38:00,
2013-03-17 04:43:00,63.3,56.7,30.03,NE,45,11.0,11.0,79,0.00,,,0.00,meteohub,2013-03-17 10:43:00,
2013-03-17 04:48:00,63.3,56.7,30.03,East,90,10.0,11.0,79,0.00,,,0.00,meteohub,2013-03-17 10:48:00,
2013-03-17 04:53:00,63.3,56.3,30.04,East,90,12.0,13.0,78,0.00,,,0.00,meteohub,2013-03-17 10:53:00,
2013-03-17 04:59:00,63.5,57.6,30.04,East,90,12.0,13.0,81,0.00,,,0.00,meteohub,2013-03-17 10:59:00,
2013-03-17 05:05:00,63.5,57.6,30.04,ESE,113,9.0,16.0,81,0.00,,,0.00,meteohub,2013-03-17 11:05:00,
2013-03-17 05:10:00,63.5,57.6,30.04,East,90,8.0,16.0,81,0.00,,,0.00,meteohub,2013-03-17 11:10:00,
2013-03-17 05:15:00,63.3,57.4,30.05,East,90,6.0,16.0,81,0.00,,,0.00,meteohub,2013-03-17 11:15:00,
2013-03-17 05:20:00,63.3,57.4,30.05,East,90,6.0,14.0,81,0.00,,,0.00,meteohub,2013-03-17 11:20:00,
2013-03-17 05:25:00,63.1,57.2,30.05,East,90,9.0,11.0,81,0.00,,,0.00,meteohub,2013-03-17 11:25:00,
2013-03-17 05:32:00,63.0,57.0,30.05,East,90,8.0,9.0,81,0.00,,,0.00,meteohub,2013-03-17 11:32:00,
2013-03-17 05:41:00,62.6,56.7,30.05,East,90,8.0,11.0,81,0.00,,,0.00,meteohub,2013-03-17 11:41:00,
2013-03-17 05:47:00,62.6,56.7,30.06,East,90,11.0,11.0,81,0.00,,,0.00,meteohub,2013-03-17 11:47:00,
2013-03-17 05:52:00,62.6,56.7,30.06,East,90,7.0,11.0,81,0.00,,,0.00,meteohub,2013-03-17 11:52:00,
2013-03-17 05:57:00,62.8,56.8,30.06,East,90,7.0,11.0,81,0.00,,,0.00,meteohub,2013-03-17 11:57:00,
2013-03-17 06:02:00,63.0,57.0,30.06,NE,45,9.0,11.0,81,0.00,,,0.00,meteohub,2013-03-17 12:02:00,
2013-03-17 06:07:00,63.1,57.2,30.08,East,90,8.0,11.0,81,0.00,,,0.00,meteohub,2013-03-17 12:07:00,
2013-03-17 06:12:00,63.3,57.4,30.07,East,90,10.0,10.0,81,0.00,,,0.00,meteohub,2013-03-17 12:12:00,
2013-03-17 06:17:00,63.3,57.4,30.07,East,90,8.0,10.0,81,0.00,,,0.00,meteohub,2013-03-17 12:17:00,
2013-03-17 06:22:00,63.9,57.9,30.08,East,90,11.0,12.0,81,0.00,,,0.00,meteohub,2013-03-17 12:22:00,
2013-03-17 06:27:00,64.2,57.9,30.08,NE,45,10.0,12.0,80,0.00,,,0.00,meteohub,2013-03-17 12:27:00,
2013-03-17 06:32:00,64.9,57.9,30.07,East,90,15.0,15.0,78,0.00,,,0.00,meteohub,2013-03-17 12:32:00,
2013-03-17 06:37:00,65.5,58.5,30.08,East,90,11.0,15.0,78,0.00,,,0.00,meteohub,2013-03-17 12:37:00,
2013-03-17 06:42:00,66.0,59.0,30.08,SE,135,9.0,15.0,78,0.00,,,0.00,meteohub,2013-03-17 12:42:00,
2013-03-17 06:47:00,66.6,59.2,30.08,East,90,14.0,15.0,77,0.00,,,0.00,meteohub,2013-03-17 12:47:00,
2013-03-17 06:52:00,66.9,58.8,30.08,East,90,10.0,14.0,75,0.00,,,0.00,meteohub,2013-03-17 12:52:00,
2013-03-17 06:59:00,67.3,58.6,30.08,East,90,10.0,14.0,74,0.00,,,0.00,meteohub,2013-03-17 12:59:00,
2013-03-17 07:04:00,67.8,59.2,30.08,East,90,16.0,16.0,74,0.00,,,0.00,meteohub,2013-03-17 13:04:00,
2013-03-17 07:09:00,68.0,59.0,30.08,East,90,11.0,13.0,73,0.00,,,0.00,meteohub,2013-03-17 13:09:00,
2013-03-17 07:14:00,68.0,59.4,30.08,SE,135,8.0,17.0,74,0.00,,,0.00,meteohub,2013-03-17 13:14:00,
2013-03-17 07:19:00,68.4,59.7,30.08,NE,45,11.0,17.0,74,0.00,,,0.00,meteohub,2013-03-17 13:19:00,
2013-03-17 07:24:00,68.5,59.9,30.08,East,90,11.0,17.0,74,0.00,,,0.00,meteohub,2013-03-17 13:24:00,
2013-03-17 07:30:00,68.9,60.3,30.08,NE,45,8.0,16.0,74,0.00,,,0.00,meteohub,2013-03-17 13:30:00,
2013-03-17 07:35:00,69.3,60.3,30.09,NE,45,16.0,16.0,73,0.00,,,0.00,meteohub,2013-03-17 13:35:00,
2013-03-17 07:40:00,69.4,60.4,30.07,NE,45,11.0,16.0,73,0.00,,,0.00,meteohub,2013-03-17 13:40:00,
2013-03-17 07:45:00,69.8,60.4,30.06,NE,45,11.0,16.0,72,0.00,,,0.00,meteohub,2013-03-17 13:45:00,
2013-03-17 07:50:00,70.3,60.4,30.07,East,90,16.0,16.0,71,0.00,,,0.00,meteohub,2013-03-17 13:50:00,
2013-03-17 07:55:00,69.6,60.6,30.07,NE,45,15.0,16.0,73,0.00,,,0.00,meteohub,2013-03-17 13:55:00,
2013-03-17 08:00:00,69.6,60.6,30.07,NE,45,15.0,19.0,73,0.00,,,0.00,meteohub,2013-03-17 14:00:00,
2013-03-17 08:05:00,70.0,60.1,30.06,NE,45,17.0,19.0,71,0.00,,,0.00,meteohub,2013-03-17 14:05:00,
2013-03-17 08:15:00,70.9,60.3,30.06,NE,45,13.0,17.0,69,0.00,,,0.00,meteohub,2013-03-17 14:15:00,
2013-03-17 08:20:00,71.4,60.3,30.06,NE,45,15.0,17.0,68,0.00,,,0.00,meteohub,2013-03-17 14:20:00,
2013-03-17 08:25:00,71.4,59.9,30.05,East,90,15.0,18.0,67,0.00,,,0.00,meteohub,2013-03-17 14:25:00,
2013-03-17 08:30:00,72.0,59.9,30.05,East,90,15.0,18.0,66,0.00,,,0.00,meteohub,2013-03-17 14:30:00,
2013-03-17 08:35:00,71.8,59.4,30.04,NE,45,20.0,20.0,65,0.00,,,0.00,meteohub,2013-03-17 14:35:00,
2013-03-17 08:40:00,72.1,59.7,30.04,NE,45,12.0,21.0,65,0.00,,,0.00,meteohub,2013-03-17 14:40:00,
2013-03-17 08:45:00,72.5,59.5,30.04,NE,45,17.0,21.0,64,0.00,,,0.00,meteohub,2013-03-17 14:45:00,
2013-03-17 08:50:00,72.9,59.5,30.02,NE,45,15.0,20.0,63,0.00,,,0.00,meteohub,2013-03-17 14:50:00,
2013-03-17 08:55:00,73.2,59.9,30.04,NE,45,18.0,18.0,63,0.00,,,0.00,meteohub,2013-03-17 14:55:00,
2013-03-17 09:01:00,73.6,60.3,30.03,NE,45,21.0,21.0,63,0.00,,,0.00,meteohub,2013-03-17 15:01:00,
2013-03-17 09:06:00,73.4,60.4,30.02,NE,45,15.0,21.0,64,0.00,,,0.00,meteohub,2013-03-17 15:06:00,
2013-03-17 09:11:00,74.3,61.3,30.02,NE,45,22.0,22.0,64,0.00,,,0.00,meteohub,2013-03-17 15:11:00,
2013-03-17 09:16:00,74.1,60.3,30.02,NE,45,17.0,22.0,62,0.00,,,0.00,meteohub,2013-03-17 15:16:00,
2013-03-17 09:21:00,73.8,60.4,30.01,East,90,15.0,22.0,63,0.00,,,0.00,meteohub,2013-03-17 15:21:00,
2013-03-17 09:26:00,74.3,60.8,30.01,NE,45,15.0,22.0,63,0.00,,,0.00,meteohub,2013-03-17 15:26:00,
2013-03-17 09:31:00,74.7,60.8,30.00,NE,45,19.0,22.0,62,0.00,,,0.00,meteohub,2013-03-17 15:31:00,
2013-03-17 09:36:00,75.0,61.2,30.00,East,90,16.0,22.0,62,0.00,,,0.00,meteohub,2013-03-17 15:36:00,
2013-03-17 09:41:00,75.2,60.4,29.99,NE,45,7.0,22.0,60,0.00,,,0.00,meteohub,2013-03-17 15:41:00,
2013-03-17 09:47:00,75.9,60.6,29.99,NE,45,11.0,22.0,59,0.00,,,0.00,meteohub,2013-03-17 15:47:00,
2013-03-17 09:52:00,76.6,60.8,29.99,East,90,17.0,22.0,58,0.00,,,0.00,meteohub,2013-03-17 15:52:00,
2013-03-17 09:58:00,76.3,61.0,29.98,NE,45,15.0,21.0,59,0.00,,,0.00,meteohub,2013-03-17 15:58:00,
2013-03-17 10:03:00,76.8,61.0,29.98,North,0,13.0,21.0,58,0.00,,,0.00,meteohub,2013-03-17 16:03:00,
2013-03-17 10:08:00,77.5,60.6,29.97,East,90,9.0,21.0,56,0.00,,,0.00,meteohub,2013-03-17 16:08:00,
2013-03-17 10:14:00,78.1,60.6,29.96,NW,315,12.0,19.0,55,0.00,,,0.00,meteohub,2013-03-17 16:14:00,
2013-03-17 10:22:00,79.5,60.8,29.94,East,90,5.0,16.0,53,0.00,,,0.00,meteohub,2013-03-17 16:22:00,
2013-03-17 10:28:00,81.1,60.8,29.94,East,90,6.0,16.0,50,0.00,,,0.00,meteohub,2013-03-17 16:28:00,
2013-03-17 10:35:00,83.5,59.9,29.93,East,90,14.0,14.0,45,0.00,,,0.00,meteohub,2013-03-17 16:35:00,
2013-03-17 10:44:00,82.6,59.7,29.92,NE,45,16.0,16.0,46,0.00,,,0.00,meteohub,2013-03-17 16:44:00,
2013-03-17 10:50:00,81.5,59.9,29.91,SE,135,15.0,17.0,48,0.00,,,0.00,meteohub,2013-03-17 16:50:00,
2013-03-17 10:55:00,80.8,60.4,29.90,NE,45,10.0,17.0,50,0.00,,,0.00,meteohub,2013-03-17 16:55:00,
2013-03-17 11:04:00,81.9,60.8,29.89,NE,45,12.0,16.0,49,0.00,,,0.00,meteohub,2013-03-17 17:04:00,
2013-03-17 11:13:00,82.2,61.2,29.88,North,0,9.0,17.0,49,0.00,,,0.00,meteohub,2013-03-17 17:13:00,
2013-03-17 11:18:00,82.2,61.2,29.87,NE,45,15.0,15.0,49,0.00,,,0.00,meteohub,2013-03-17 17:18:00,
2013-03-17 11:23:00,82.4,61.3,29.86,NE,45,18.0,18.0,49,0.00,,,0.00,meteohub,2013-03-17 17:23:00,
2013-03-17 11:28:00,81.7,61.2,29.86,North,0,17.0,19.0,50,0.00,,,0.00,meteohub,2013-03-17 17:28:00,
2013-03-17 11:33:00,81.1,60.8,29.86,North,0,15.0,19.0,50,0.00,,,0.00,meteohub,2013-03-17 17:33:00,
2013-03-17 11:39:00,82.0,61.5,29.85,NE,45,17.0,19.0,50,0.00,,,0.00,meteohub,2013-03-17 17:39:00,
2013-03-17 11:44:00,82.4,60.8,29.85,NE,45,14.0,19.0,48,0.00,,,0.00,meteohub,2013-03-17 17:44:00,
2013-03-17 11:49:00,82.4,60.8,29.83,NE,45,13.0,19.0,48,0.00,,,0.00,meteohub,2013-03-17 17:49:00,
2013-03-17 11:54:00,82.0,61.0,29.83,North,0,19.0,23.0,49,0.00,,,0.00,meteohub,2013-03-17 17:54:00,
2013-03-17 11:59:00,81.7,61.9,29.83,North,0,15.0,23.0,51,0.00,,,0.00,meteohub,2013-03-17 17:59:00,
2013-03-17 12:04:00,82.4,61.9,29.82,NE,45,22.0,23.0,50,0.00,,,0.00,meteohub,2013-03-17 18:04:00,
2013-03-17 12:09:00,82.6,61.5,29.82,East,90,15.0,22.0,49,0.00,,,0.00,meteohub,2013-03-17 18:09:00,
2013-03-17 12:14:00,81.9,61.9,29.81,NE,45,19.0,22.0,51,0.00,,,0.00,meteohub,2013-03-17 18:14:00,
2013-03-17 12:19:00,81.9,61.9,29.81,NE,45,14.0,22.0,51,0.00,,,0.00,meteohub,2013-03-17 18:19:00,
2013-03-17 12:24:00,82.2,62.2,29.80,NE,45,15.0,23.0,51,0.00,,,0.00,meteohub,2013-03-17 18:24:00,
2013-03-17 12:29:00,82.4,61.9,29.79,NE,45,17.0,23.0,50,0.00,,,0.00,meteohub,2013-03-17 18:29:00,
2013-03-17 12:34:00,82.6,62.1,29.79,NE,45,17.0,23.0,50,0.00,,,0.00,meteohub,2013-03-17 18:34:00,
2013-03-17 12:44:00,81.5,62.2,29.78,North,0,18.0,23.0,52,0.00,,,0.00,meteohub,2013-03-17 18:44:00,
2013-03-17 12:49:00,81.5,62.2,29.77,East,90,17.0,23.0,52,0.00,,,0.00,meteohub,2013-03-17 18:49:00,
2013-03-17 12:54:00,81.0,62.2,29.77,NE,45,19.0,23.0,53,0.00,,,0.00,meteohub,2013-03-17 18:54:00,
2013-03-17 13:04:00,80.4,62.2,29.77,NE,45,20.0,24.0,54,0.00,,,0.00,meteohub,2013-03-17 19:04:00,
2013-03-17 13:09:00,79.9,62.8,29.76,NE,45,15.0,25.0,56,0.00,,,0.00,meteohub,2013-03-17 19:09:00,
2013-03-17 13:14:00,80.2,63.1,29.76,NE,45,24.0,25.0,56,0.00,,,0.00,meteohub,2013-03-17 19:14:00,
2013-03-17 13:19:00,79.9,62.8,29.75,NE,45,15.0,25.0,56,0.00,,,0.00,meteohub,2013-03-17 19:19:00,
2013-03-17 13:24:00,80.6,63.0,29.74,East,90,22.0,24.0,55,0.00,,,0.00,meteohub,2013-03-17 19:24:00,
2013-03-17 13:29:00,81.0,62.2,29.74,NE,45,18.0,24.0,53,0.00,,,0.00,meteohub,2013-03-17 19:29:00,
2013-03-17 13:34:00,81.1,62.4,29.73,NE,45,18.0,23.0,53,0.00,,,0.00,meteohub,2013-03-17 19:34:00,
2013-03-17 13:40:00,81.1,62.4,29.73,NE,45,17.0,22.0,53,0.00,,,0.00,meteohub,2013-03-17 19:40:00,
2013-03-17 13:45:00,81.1,62.4,29.73,NE,45,19.0,22.0,53,0.00,,,0.00,meteohub,2013-03-17 19:45:00,
2013-03-17 13:50:00,81.1,63.0,29.73,East,90,18.0,22.0,54,0.00,,,0.00,meteohub,2013-03-17 19:50:00,
2013-03-17 13:55:00,81.0,63.3,29.71,North,0,16.0,21.0,55,0.00,,,0.00,meteohub,2013-03-17 19:55:00,
2013-03-17 14:00:00,81.0,63.9,29.72,NE,45,16.0,21.0,56,0.00,,,0.00,meteohub,2013-03-17 20:00:00,
2013-03-17 14:06:00,80.8,63.1,29.71,NE,45,16.0,22.0,55,0.00,,,0.00,meteohub,2013-03-17 20:06:00,
2013-03-17 14:15:00,80.4,63.3,29.71,NE,45,25.0,25.0,56,0.00,,,0.00,meteohub,2013-03-17 20:15:00,
2013-03-17 14:20:00,79.7,63.7,29.70,NE,45,23.0,23.0,58,0.00,,,0.00,meteohub,2013-03-17 20:20:00,
2013-03-17 14:28:00,79.2,64.0,29.70,NE,45,21.0,27.0,60,0.00,,,0.00,meteohub,2013-03-17 20:28:00,
2013-03-17 14:34:00,79.0,63.5,29.70,NE,45,18.0,25.0,59,0.00,,,0.00,meteohub,2013-03-17 20:34:00,
2013-03-17 14:39:00,79.0,64.4,29.70,NE,45,25.0,25.0,61,0.00,,,0.00,meteohub,2013-03-17 20:39:00,
2013-03-17 14:46:00,78.8,64.8,29.70,NE,45,21.0,25.0,62,0.00,,,0.00,meteohub,2013-03-17 20:46:00,
2013-03-17 14:51:00,78.1,64.4,29.69,NE,45,24.0,25.0,63,0.00,,,0.00,meteohub,2013-03-17 20:51:00,
2013-03-17 14:56:00,77.0,64.4,29.70,North,0,21.0,24.0,65,0.00,,,0.00,meteohub,2013-03-17 20:56:00,
2013-03-17 15:02:00,77.0,64.8,29.69,NE,45,20.0,24.0,66,0.00,,,0.00,meteohub,2013-03-17 21:02:00,
2013-03-17 15:07:00,77.2,64.6,29.69,NE,45,17.0,24.0,65,0.00,,,0.00,meteohub,2013-03-17 21:07:00,
2013-03-17 15:12:00,76.8,64.9,29.70,NE,45,20.0,24.0,67,0.00,,,0.00,meteohub,2013-03-17 21:12:00,
2013-03-17 15:18:00,76.6,64.9,29.69,North,0,17.0,26.0,67,0.00,,,0.00,meteohub,2013-03-17 21:18:00,
2013-03-17 15:23:00,77.0,64.8,29.69,NE,45,26.0,26.0,66,0.00,,,0.00,meteohub,2013-03-17 21:23:00,
2013-03-17 15:29:00,76.6,64.9,29.72,North,0,17.0,23.0,67,0.00,,,0.00,meteohub,2013-03-17 21:29:00,
2013-03-17 15:35:00,76.8,64.9,29.73,NE,45,12.0,26.0,67,0.00,,,0.00,meteohub,2013-03-17 21:35:00,
2013-03-17 15:40:00,77.0,64.8,29.75,North,0,15.0,26.0,66,0.00,,,0.00,meteohub,2013-03-17 21:40:00,
2013-03-17 15:48:00,76.6,64.9,29.76,East,90,17.0,23.0,67,0.00,,,0.00,meteohub,2013-03-17 21:48:00,
2013-03-17 15:53:00,76.3,64.6,29.76,NE,45,20.0,23.0,67,0.00,,,0.00,meteohub,2013-03-17 21:53:00,
2013-03-17 16:02:00,75.4,64.0,29.78,NE,45,21.0,22.0,68,0.00,,,0.00,meteohub,2013-03-17 22:02:00,
2013-03-17 16:07:00,75.4,64.6,29.78,North,0,18.0,22.0,69,0.00,,,0.00,meteohub,2013-03-17 22:07:00,
2013-03-17 16:12:00,75.7,64.8,29.79,North,0,17.0,22.0,69,0.00,,,0.00,meteohub,2013-03-17 22:12:00,
2013-03-17 16:21:00,75.2,65.1,29.79,NE,45,21.0,21.0,71,0.00,,,0.00,meteohub,2013-03-17 22:21:00,
2013-03-17 16:28:00,74.8,65.7,29.80,NE,45,17.0,21.0,73,0.00,,,0.00,meteohub,2013-03-17 22:28:00,
2013-03-17 16:34:00,74.8,65.7,29.80,NE,45,14.0,21.0,73,0.00,,,0.00,meteohub,2013-03-17 22:34:00,
2013-03-17 16:39:00,74.8,65.7,29.80,NE,45,18.0,21.0,73,0.00,,,0.00,meteohub,2013-03-17 22:39:00,
2013-03-17 16:44:00,74.3,65.5,29.81,NE,45,20.0,20.0,74,0.00,,,0.00,meteohub,2013-03-17 22:44:00,
2013-03-17 16:53:00,73.4,65.3,29.82,NE,45,19.0,20.0,76,0.00,,,0.00,meteohub,2013-03-17 22:53:00,
2013-03-17 17:03:00,72.0,65.1,29.84,NE,45,12.0,20.0,79,0.00,,,0.00,meteohub,2013-03-17 23:03:00,
2013-03-17 17:08:00,71.6,65.1,29.84,North,0,15.0,22.0,80,0.00,,,0.00,meteohub,2013-03-17 23:08:00,
2013-03-17 17:13:00,71.2,65.5,29.86,NE,45,17.0,22.0,82,0.00,,,0.00,meteohub,2013-03-17 23:13:00,
2013-03-17 17:19:00,70.9,65.5,29.86,NE,45,15.0,20.0,83,0.00,,,0.00,meteohub,2013-03-17 23:19:00,
2013-03-17 17:28:00,70.2,65.1,29.87,NE,45,15.0,22.0,84,0.00,,,0.00,meteohub,2013-03-17 23:28:00,
2013-03-17 17:33:00,69.8,65.1,29.88,North,0,11.0,22.0,85,0.00,,,0.00,meteohub,2013-03-17 23:33:00,
2013-03-17 17:38:00,70.0,65.3,29.89,NE,45,21.0,22.0,85,0.00,,,0.00,meteohub,2013-03-17 23:38:00,
2013-03-17 17:43:00,70.0,65.3,29.88,NE,45,17.0,19.0,85,0.00,,,0.00,meteohub,2013-03-17 23:43:00,
2013-03-17 17:48:00,69.8,65.1,29.89,NE,45,17.0,21.0,85,0.00,,,0.00,meteohub,2013-03-17 23:48:00,
2013-03-17 17:53:00,69.8,65.5,29.90,NE,45,12.0,21.0,86,0.00,,,0.00,meteohub,2013-03-17 23:53:00,
2013-03-17 18:00:00,69.8,65.5,29.89,NE,45,16.0,18.0,86,0.00,,,0.00,meteohub,2013-03-18 00:00:00,
2013-03-17 18:05:00,69.6,65.7,29.90,NE,45,13.0,18.0,87,0.00,,,0.00,meteohub,2013-03-18 00:05:00,
2013-03-17 18:10:00,69.4,65.7,29.91,NE,45,12.0,17.0,88,0.00,,,0.00,meteohub,2013-03-18 00:10:00,
2013-03-17 18:15:00,69.3,65.5,29.91,NE,45,16.0,20.0,88,0.00,,,0.00,meteohub,2013-03-18 00:15:00,
2013-03-17 18:21:00,69.3,65.5,29.91,NE,45,15.0,20.0,88,0.00,,,0.00,meteohub,2013-03-18 00:21:00,
2013-03-17 18:31:00,69.3,65.5,29.91,NE,45,14.0,20.0,88,0.00,,,0.00,meteohub,2013-03-18 00:31:00,
2013-03-17 18:36:00,69.1,65.3,29.92,NE,45,16.0,20.0,88,0.00,,,0.00,meteohub,2013-03-18 00:36:00,
2013-03-17 18:41:00,69.1,65.7,29.92,SW,225,13.0,20.0,89,0.00,,,0.00,meteohub,2013-03-18 00:41:00,
2013-03-17 18:46:00,69.3,65.8,29.93,NE,45,10.0,16.0,89,0.00,,,0.00,meteohub,2013-03-18 00:46:00,
2013-03-17 18:51:00,69.3,65.8,29.93,NE,45,12.0,16.0,89,0.00,,,0.00,meteohub,2013-03-18 00:51:00,
2013-03-17 18:56:00,69.1,65.7,29.92,NE,45,9.0,13.0,89,0.00,,,0.00,meteohub,2013-03-18 00:56:00,
2013-03-17 19:01:00,69.1,65.7,29.93,NE,45,17.0,17.0,89,0.00,,,0.00,meteohub,2013-03-18 01:01:00,
2013-03-17 19:06:00,69.1,65.7,29.93,NE,45,12.0,17.0,89,0.00,,,0.00,meteohub,2013-03-18 01:06:00,
2013-03-17 19:11:00,69.1,65.7,29.93,NE,45,8.0,17.0,89,0.00,,,0.00,meteohub,2013-03-18 01:11:00,
2013-03-17 19:17:00,69.1,65.7,29.93,East,90,10.0,17.0,89,0.00,,,0.00,meteohub,2013-03-18 01:17:00,
2013-03-17 19:22:00,68.9,65.5,29.93,NE,45,9.0,14.0,89,0.00,,,0.00,meteohub,2013-03-18 01:22:00,
2013-03-17 19:29:00,68.9,65.5,29.94,East,90,8.0,14.0,89,0.00,,,0.00,meteohub,2013-03-18 01:29:00,
2013-03-17 19:34:00,68.9,65.5,29.94,NE,45,11.0,14.0,89,0.00,,,0.00,meteohub,2013-03-18 01:34:00,
2013-03-17 19:39:00,68.7,65.3,29.94,NE,45,12.0,13.0,89,0.00,,,0.00,meteohub,2013-03-18 01:39:00,
2013-03-17 19:47:00,68.5,65.5,29.94,NE,45,10.0,12.0,90,0.00,,,0.00,meteohub,2013-03-18 01:47:00,
2013-03-17 19:53:00,68.5,65.5,29.94,NE,45,11.0,13.0,90,0.00,,,0.00,meteohub,2013-03-18 01:53:00,
2013-03-17 19:59:00,68.5,65.5,29.94,NE,45,12.0,13.0,90,0.00,,,0.00,meteohub,2013-03-18 01:59:00,
2013-03-17 20:07:00,68.5,65.5,29.95,NE,45,9.0,12.0,90,0.00,,,0.00,meteohub,2013-03-18 02:07:00,
2013-03-17 20:16:00,68.5,65.5,29.96,NE,45,10.0,11.0,90,0.00,,,0.00,meteohub,2013-03-18 02:16:00,
2013-03-17 20:21:00,68.7,65.7,29.96,NE,45,8.0,11.0,90,0.00,,,0.00,meteohub,2013-03-18 02:21:00,
2013-03-17 20:29:00,68.7,65.7,29.96,SE,135,5.0,11.0,90,0.00,,,0.00,meteohub,2013-03-18 02:29:00,
2013-03-17 20:38:00,68.5,65.5,29.96,NE,45,9.0,11.0,90,0.00,,,0.00,meteohub,2013-03-18 02:38:00,
2013-03-17 20:47:00,68.2,65.5,29.96,NE,45,10.0,11.0,91,0.00,,,0.00,meteohub,2013-03-18 02:47:00,
2013-03-17 20:52:00,68.0,65.7,29.96,NE,45,9.0,14.0,92,0.00,,,0.00,meteohub,2013-03-18 02:52:00,
2013-03-17 20:58:00,68.0,65.7,29.96,NE,45,12.0,14.0,92,0.00,,,0.00,meteohub,2013-03-18 02:58:00,
2013-03-17 21:03:00,67.8,66.0,29.97,NE,45,5.0,13.0,94,0.00,,,0.00,meteohub,2013-03-18 03:03:00,
2013-03-17 21:08:00,67.6,65.8,29.97,NE,45,6.0,12.0,94,0.00,,,0.00,meteohub,2013-03-18 03:08:00,
2013-03-17 21:13:00,67.6,65.8,29.97,East,90,11.0,12.0,94,0.00,,,0.00,meteohub,2013-03-18 03:13:00,
2013-03-17 21:19:00,67.5,65.7,29.97,NE,45,5.0,11.0,94,0.00,,,0.00,meteohub,2013-03-18 03:19:00,
2013-03-17 21:28:00,67.3,65.8,29.97,NE,45,10.0,11.0,95,0.00,,,0.00,meteohub,2013-03-18 03:28:00,
2013-03-17 21:33:00,67.1,65.7,29.97,North,0,11.0,11.0,95,0.00,,,0.00,meteohub,2013-03-18 03:33:00,
2013-03-17 21:38:00,67.1,65.7,29.99,NE,45,7.0,11.0,95,0.00,,,0.00,meteohub,2013-03-18 03:38:00,
2013-03-17 21:43:00,66.9,65.5,29.98,NE,45,9.0,11.0,95,0.00,,,0.00,meteohub,2013-03-18 03:43:00,
2013-03-17 21:48:00,67.1,65.7,29.98,NE,45,10.0,11.0,95,0.00,,,0.00,meteohub,2013-03-18 03:48:00,
2013-03-17 21:53:00,67.1,65.7,29.99,East,90,9.0,11.0,95,0.00,,,0.00,meteohub,2013-03-18 03:53:00,
2013-03-17 21:58:00,67.1,65.3,29.99,NE,45,11.0,12.0,94,0.00,,,0.00,meteohub,2013-03-18 03:58:00,
2013-03-17 22:00:00,67.1,65.3,29.99,NE,45,10.0,12.0,94,0.00,,,0.00,meteohub,2013-03-18 04:00:00,
2013-03-17 22:05:00,67.1,65.3,29.99,NE,45,10.0,13.0,94,0.00,,,0.00,meteohub,2013-03-18 04:05:00,
2013-03-17 22:10:00,67.3,65.1,29.99,NE,45,9.0,13.0,93,0.00,,,0.00,meteohub,2013-03-18 04:10:00,
2013-03-17 22:18:00,67.3,65.1,29.99,NE,45,14.0,14.0,93,0.00,,,0.00,meteohub,2013-03-18 04:18:00,
2013-03-17 22:23:00,66.9,64.8,29.99,NE,45,12.0,15.0,93,0.00,,,0.00,meteohub,2013-03-18 04:23:00,
2013-03-17 22:33:00,66.7,64.9,29.99,East,90,11.0,15.0,94,0.00,,,0.00,meteohub,2013-03-18 04:33:00,
2013-03-17 22:44:00,66.4,64.9,30.00,North,0,14.0,15.0,95,0.00,,,0.00,meteohub,2013-03-18 04:44:00,
2013-03-17 22:50:00,66.4,64.9,29.99,NE,45,11.0,15.0,95,0.00,,,0.00,meteohub,2013-03-18 04:50:00,
2013-03-17 23:00:00,66.4,64.9,29.99,East,90,10.0,14.0,95,0.00,,,0.00,meteohub,2013-03-18 05:00:00,
2013-03-17 23:05:00,66.4,64.9,29.99,NE,45,10.0,14.0,95,0.00,,,0.00,meteohub,2013-03-18 05:05:00,
2013-03-17 23:10:00,66.4,64.6,29.99,NE,45,9.0,14.0,94,0.00,,,0.00,meteohub,2013-03-18 05:10:00,
2013-03-17 23:15:00,66.4,64.6,29.98,NE,45,8.0,11.0,94,0.00,,,0.00,meteohub,2013-03-18 05:15:00,
2013-03-17 23:20:00,66.4,64.6,29.99,NE,45,11.0,11.0,94,0.00,,,0.00,meteohub,2013-03-18 05:20:00,
2013-03-17 23:28:00,66.6,64.8,29.97,NE,45,10.0,11.0,94,0.00,,,0.00,meteohub,2013-03-18 05:28:00,
2013-03-17 23:34:00,66.6,64.4,29.98,NE,45,11.0,11.0,93,0.00,,,0.00,meteohub,2013-03-18 05:34:00,
2013-03-17 23:39:00,66.6,64.2,29.99,NE,45,8.0,12.0,92,0.00,,,0.00,meteohub,2013-03-18 05:39:00,
2013-03-17 23:44:00,66.4,64.0,29.98,NE,45,10.0,12.0,92,0.00,,,0.00,meteohub,2013-03-18 05:44:00,
2013-03-17 23:49:00,66.4,64.0,29.98,NE,45,7.0,12.0,92,0.00,,,0.00,meteohub,2013-03-18 05:49:00,
2013-03-17 23:54:00,66.4,64.0,29.97,NE,45,10.0,11.0,92,0.00,,,0.00,meteohub,2013-03-18 05:54:00,
2013-03-17 23:59:00,66.6,63.9,29.98,NE,45,7.0,11.0,91,0.00,,,0.00,meteohub,2013-03-18 05:59:00,